User: anonymous   Login
Location: Unspecified
(0.0000°N, 0.0000°E)
Time: 01:09:51
(UTC+00:00)
Language:

STARLINK-11570 [DTC] - Orbit

View from above orbital plane
View from above orbital plane
View from above satellite
View from above satellite

Ground track
Ground track

The orbit is defined by the following mean orbital elements,

1 62992U          26145.02076280 +.00000000 +00000-0 +12220-2 0 00003
2 62992  43.0014 261.6845 0001674  37.4107 322.6877 15.70879169    02
Epoch (UTC): 25 May 2026 00:29:53
Eccentricity: 0.0001674
inclination: 43.0014°
perigee height: 355 km
apogee height: 358 km
right ascension of ascending node: 261.6845°
argument of perigee: 37.4107°
revolutions per day: 15.70879169
mean anomaly at epoch: 322.6877°

The dashed part of the orbit path shows where the satellite is in the earth's shadow,  

DLR